Find Starlink 30400

NORAD ID: 57937 Int'l Des: 2023-148 Owner: SPXS Country: US Constellation: starlink operational
LEOCIRCULAR

当前视图

正在加载3D地球...

About Starlink 30400

Starlink 30400 (NORAD 57937) is a starlink constellation satellite (v2 mini) launched Sep 25, 2023 by SPXS of US. It operates in LEO, CIRCULAR orbit with a mass of 730.00 kg.

即将过境

Passes for default location (London). Set your location on the main map for personalized predictions.

高度历史

Loading altitude history...

两行轨道根数

1 57937U 23148C 26264.50827949 -.00000214 00000-0 48099-5 0 9996
2 57937 53.1608 191.1075 0001139 88.9018 271.2115 15.34387381168454
Epoch: Sep 21, 2026 • Age: 18 hours

当前状态

高度 464.9 km
远地点 / 近地点 N/A
速度 7.63 km/s
星下点 -6.73°S, 81.66°W
发射日期 Sep 25, 2023
运行时间 2.9 years
类型 internet

技术详情

分类 Payload
质量 730.00 kg
干质量 700.00 kg
长度 0.30 m
跨度 29.00 m
形状 ? Box + pan
制造商 SPXS
平台类型 Starlink V2M
阶段状态 In Orbit
所有者/国家 SPXS/US

Most Searched